Brno, Czech Republic

1:16 PM CEST on April 22, 2018 (GMT +0200)
Turany

Weather History for LKTB - October, 2011

Change the Weather History Date:

Tuesday, October 11, 2011

  Actual Average Record
Temperature  
Mean Temperature 58 °F -  
Max Temperature 67 °F 52 °F - ()
Min Temperature 48 °F 38 °F - ()
Degree Days  
Heating Degree Days 8    
Growing Degree Days 8 (Base 50)    
Moisture  
Dew Point 50 °F    
Average Humidity 74    
Maximum Humidity 100    
Minimum Humidity 47    
Precipitation  
Precipitation 0.00 in 0.04 in - ()
Sea Level Pressure  
Sea Level Pressure 29.98 in    
Wind  
Wind Speed 8 mph ()    
Max Wind Speed 22 mph    
Max Gust Speed 34 mph    
Visibility 6.2 miles    
Events Rain    
T = Trace of Precipitation, MM = Missing Value Source: Averaged Metar Reports

Daily Weather History Graph

Daily Weather History Graph

Search for Another Location

Airport or City:

Astronomy

Oct. 11, 2011 Rise Set
Actual Time 7:07 AM CEST 6:12 PM CEST
Civil Twilight 6:35 AM CEST 6:44 PM CEST
Nautical Twilight 5:58 AM CEST 7:20 PM CEST
Astronomical Twilight 5:21 AM CEST 7:57 PM CEST
Moon 5:31 PM CEST (10/11) 6:29 AM CEST (10/11)
Length of Visible Light 12h 08m
Length of Day
11h 05m
Full, 100% of the Moon is Illuminated
Oct 11
Full
Oct 12
Full
Oct 20
Last Quarter
Oct 26
New
Nov 2
First Quarter

Hourly Weather History & Observations

Time (CEST) Temp. Dew Point Humidity Pressure Visibility Wind Dir Wind Speed Gust Speed Precip Events Conditions
12:00 AM 50.0 °F 48.2 °F 94% 29.98 in - SSW 2.3 mph - N/A   Overcast
12:30 AM 50.0 °F 48.2 °F 94% 29.98 in - SW 3.5 mph - N/A   Overcast
1:00 AM 50.0 °F 48.2 °F 94% 29.98 in - SW 3.5 mph - N/A   Mostly Cloudy
1:30 AM 50.0 °F 48.2 °F 94% 29.98 in 2.8 mi SSW 3.5 mph - N/A   Mostly Cloudy
2:00 AM 50 °F 48 °F 92% 30.00 in 3 mi South 2.2 mph - -   Mist
2:00 AM 50.0 °F 48.2 °F 94% 29.98 in 3.1 mi WSW 3.5 mph - N/A   Mostly Cloudy
2:30 AM 50.0 °F 48.2 °F 94% 29.98 in 5.0 mi WSW 2.3 mph - N/A   Mostly Cloudy
3:00 AM 50.0 °F 50.0 °F 100% 29.98 in 5.0 mi West 3.5 mph - N/A   Mostly Cloudy
3:30 AM 50.0 °F 50.0 °F 100% 29.98 in 5.0 mi West 4.6 mph - N/A   Mostly Cloudy
4:00 AM 50.0 °F 50.0 °F 100% 29.98 in 6.2 mi SSW 2.3 mph - N/A   Mostly Cloudy
4:30 AM 51.8 °F 50.0 °F 94% 29.98 in 6.2 mi SW 2.3 mph - N/A   Mostly Cloudy
5:00 AM 51.8 °F 50.0 °F 94% 29.98 in 6.2 mi Calm Calm - N/A   Mostly Cloudy
5:30 AM 51.8 °F 50.0 °F 94% 29.98 in - Variable 2.3 mph - N/A   Clear
6:00 AM 51.8 °F 50.0 °F 94% 29.98 in 6.2 mi SSW 4.6 mph - N/A   Mostly Cloudy
6:30 AM 53.6 °F 51.8 °F 94% 29.98 in 6.2 mi SW 3.5 mph - N/A   Mostly Cloudy
7:00 AM 55.4 °F 51.8 °F 88% 29.98 in 6.2 mi WSW 5.8 mph - N/A   Mostly Cloudy
7:30 AM 57.2 °F 53.6 °F 88% 29.98 in 6.2 mi West 8.1 mph - N/A   Mostly Cloudy
8:00 AM 58 °F 53 °F 78% 29.99 in 22 mi WSW 8.9 mph - -   Mostly Cloudy
8:00 AM 57.2 °F 53.6 °F 88% 29.98 in 6.2 mi West 9.2 mph - N/A   Mostly Cloudy
8:30 AM 59.0 °F 53.6 °F 82% 29.98 in 6.2 mi West 9.2 mph - N/A   Mostly Cloudy
9:00 AM 59.0 °F 53.6 °F 82% 30.01 in 6.2 mi West 9.2 mph - N/A   Mostly Cloudy
9:30 AM 60.8 °F 53.6 °F 77% 30.01 in 6.2 mi West 10.4 mph - N/A   Mostly Cloudy
10:00 AM 60.8 °F 53.6 °F 77% 30.01 in 6.2 mi West 11.5 mph - N/A   Mostly Cloudy
10:30 AM 60.8 °F 51.8 °F 72% 30.01 in 6.2 mi West 9.2 mph - N/A   Mostly Cloudy
11:00 AM 62.6 °F 51.8 °F 68% 30.01 in 6.2 mi West 8.1 mph - N/A   Mostly Cloudy
11:30 AM 62.6 °F 51.8 °F 68% 30.01 in 6.2 mi West 12.7 mph - N/A   Mostly Cloudy
11:37 AM 62.6 °F 51.8 °F 68% 30.01 in 6.2 mi West 12.7 mph 26.5 mph N/A   Mostly Cloudy
12:00 PM 62.6 °F 51.8 °F 68% 30.01 in 6.2 mi West 20.7 mph 32.2 mph N/A   Mostly Cloudy
12:30 PM 66.2 °F 51.8 °F 60% 30.01 in 6.2 mi West 17.3 mph 28.8 mph N/A   Mostly Cloudy
1:00 PM 66.2 °F 51.8 °F 60% 29.98 in 6.2 mi West 18.4 mph - N/A   Mostly Cloudy
1:30 PM 66.2 °F 51.8 °F 60% 29.98 in 6.2 mi WNW 19.6 mph - N/A   Mostly Cloudy
1:38 PM 66.2 °F 51.8 °F 60% 29.98 in 6.2 mi West 13.8 mph 25.3 mph N/A   Mostly Cloudy
2:00 PM 67 °F 51 °F 47% 29.97 in 25 mi West 13.4 mph - -   Mostly Cloudy
2:00 PM 66.2 °F 51.8 °F 60% 29.98 in 6.2 mi West 15.0 mph - N/A   Mostly Cloudy
2:30 PM 66.2 °F 51.8 °F 60% 29.98 in 6.2 mi West 16.1 mph - N/A   Mostly Cloudy
3:00 PM 68.0 °F 50.0 °F 52% 29.95 in 6.2 mi West 15.0 mph - N/A   Mostly Cloudy
3:04 PM 68.0 °F 50.0 °F 52% 29.95 in 6.2 mi West 16.1 mph 28.8 mph N/A   Mostly Cloudy
3:30 PM 66.2 °F 50.0 °F 56% 29.95 in 6.2 mi West 18.4 mph - N/A   Mostly Cloudy
4:00 PM 66.2 °F 50.0 °F 56% 29.98 in 6.2 mi WNW 17.3 mph - N/A   Mostly Cloudy
4:30 PM 66.2 °F 50.0 °F 56% 29.98 in 6.2 mi WNW 20.7 mph - N/A   Mostly Cloudy
4:33 PM 66.2 °F 48.2 °F 52% 29.98 in 6.2 mi West 21.9 mph 34.5 mph N/A   Overcast
5:00 PM 64.4 °F 48.2 °F 56% 29.98 in 6.2 mi West 19.6 mph 31.1 mph N/A   Mostly Cloudy
5:30 PM 64.4 °F 48.2 °F 56% 29.98 in 6.2 mi WNW 20.7 mph - N/A   Mostly Cloudy
6:00 PM 62.6 °F 50.0 °F 63% 29.98 in 6.2 mi WNW 16.1 mph - N/A   Mostly Cloudy
6:30 PM 62.6 °F 48.2 °F 59% 29.98 in 6.2 mi West 17.3 mph - N/A   Mostly Cloudy
7:00 PM 62.6 °F 48.2 °F 59% 29.98 in 6.2 mi West 17.3 mph - N/A   Mostly Cloudy
7:10 PM 62.6 °F 48.2 °F 59% 29.98 in 6.2 mi West 16.1 mph - N/A Rain Light Rain
7:30 PM 60.8 °F 50.0 °F 68% 29.98 in 6.2 mi West 17.3 mph - N/A Rain Light Rain
8:00 PM 60 °F 50 °F 61% 29.98 in 19 mi West 11.2 mph - - Rain Light Rain
8:00 PM 59.0 °F 50.0 °F 72% 29.98 in 6.2 mi West 11.5 mph - N/A   Overcast
8:30 PM 59.0 °F 50.0 °F 72% 29.98 in - West 6.9 mph - N/A   Clear
9:00 PM 59.0 °F 50.0 °F 72% 29.95 in 6.2 mi West 5.8 mph - N/A Rain Light Rain
9:30 PM 59.0 °F 50.0 °F 72% 29.98 in - West 9.2 mph - N/A   Clear
10:00 PM 59.0 °F 50.0 °F 72% 29.95 in - West 9.2 mph - N/A   Clear
10:30 PM 59.0 °F 50.0 °F 72% 29.95 in - West 11.5 mph - N/A   Clear
11:00 PM 59.0 °F 50.0 °F 72% 29.95 in 6.2 mi West 11.5 mph - N/A Rain Light Rain
11:30 PM 59.0 °F 50.0 °F 72% 29.95 in 6.2 mi West 12.7 mph - N/A Rain Light Rain